Weather History for Camarillo, CA

Change the Weather History Date:

Thursday, December 30, 2010

  Actual Average Record
Temperature  
Mean Temperature 47 °F 54 °F  
Max Temperature 58 °F 65 °F 88 °F (1980)
Min Temperature 36 °F 43 °F 33 °F (1949)
Degree Days  
Heating Degree Days 18 11  
Month to date heating degree days 273 339  
Since 1 July heating degree days 605 671  
Cooling Degree Days 0 0  
Month to date cooling degree days 6 0  
Year to date cooling degree days 277 330  
Moisture  
Dew Point 25 °F    
Average Humidity 47    
Maximum Humidity 70    
Minimum Humidity 24    
Precipitation  
Precipitation 0.00 in 0.14 in 1.29 in (1951)
Month to date precipitation 7.21 1.93  
Year to date precipitation 17.76 15.09  
Since 1 July precipitation 9.89 4.11  
Sea Level Pressure  
Sea Level Pressure 29.86 in    
Wind  
Wind Speed 7 mph (NNE)    
Max Wind Speed 21 mph    
Max Gust Speed 29 mph    
Visibility 10 miles    
Events      
T = Trace of Precipitation, MM = Missing Value Source: NWS Daily Summary

Daily Weather History Graph

Daily Weather History Graph

Search for Another Location

Airport:

Trip Planner

Search our weather history database for the weather conditions in past years. The results will help you decide how hot, cold, wet, or windy it might be!

Date:

Astronomy

Dec. 30, 2010 Rise Set
Actual Time 7:01 AM PST 4:56 PM PST
Civil Twilight 6:34 AM PST 5:23 PM PST
Nautical Twilight 6:02 AM PST 5:55 PM PST
Astronomical Twilight 5:32 AM PST 6:25 PM PST
Moon 2:30 AM PST (12/30) 1:03 PM PST (12/30)
Length of Visible Light 10h 49m
Length of Day
9h 54m
Waning Crescent, 22% of the Moon is Illuminated
Dec 30
Waning Crescent
Jan 4
New
Jan 12
First Quarter
Jan 19
Full
Jan 26
Last Quarter

Hourly Weather History & Observations

Time (PST) Temp. Windchill Dew Point Humidity Pressure Visibility Wind Dir Wind Speed Gust Speed Precip Events Conditions
12:55 AM 48.0 °F - 28.0 °F 46% 29.75 in 10.0 mi NW 16.1 mph - N/A   Clear
2:55 AM 46.9 °F - 25.0 °F 42% 29.77 in 10.0 mi WSW 10.4 mph - N/A   Clear
3:55 AM 46.0 °F 43.1 °F 23.0 °F 40% 29.78 in 10.0 mi West 5.8 mph - N/A   Clear
4:55 AM 42.1 °F 38.4 °F 25.0 °F 51% 29.79 in 10.0 mi ENE 5.8 mph - N/A   Clear
5:55 AM 39.9 °F 35.1 °F 27.0 °F 60% 29.82 in 10.0 mi ENE 6.9 mph - N/A   Clear
6:55 AM 39.9 °F 33.9 °F 26.1 °F 58% 29.84 in 10.0 mi NE 9.2 mph - N/A   Clear
7:55 AM 44.1 °F 37.7 °F 26.1 °F 49% 29.86 in 10.0 mi ENE 12.7 mph - N/A   Clear
8:55 AM 48.0 °F - 27.0 °F 44% 29.88 in 10.0 mi NE 6.9 mph - N/A   Clear
9:55 AM 51.1 °F - 25.0 °F 36% 29.91 in 10.0 mi Calm Calm - N/A   Clear
10:55 AM 53.1 °F - 25.0 °F 34% 29.91 in 10.0 mi SSW 4.6 mph - N/A   Clear
11:55 AM 55.0 °F - 21.9 °F 28% 29.88 in 10.0 mi Variable 5.8 mph - N/A   Clear
12:55 PM 55.9 °F - 19.9 °F 25% 29.86 in 10.0 mi SE 4.6 mph - N/A   Clear
1:55 PM 57.0 °F - 21.0 °F 25% 29.85 in 10.0 mi Calm Calm - N/A   Clear
2:55 PM 55.9 °F - 21.9 °F 27% 29.83 in 10.0 mi WNW 13.8 mph - N/A   Clear
3:55 PM 57.0 °F - 21.9 °F 26% 29.84 in 10.0 mi WNW 11.5 mph - N/A   Clear
4:55 PM 51.1 °F - 25.0 °F 36% 29.85 in 10.0 mi WNW 8.1 mph - N/A   Clear
5:55 PM 52.0 °F - 21.0 °F 30% 29.88 in 10.0 mi Calm Calm - N/A   Clear
6:55 PM 46.9 °F - 25.0 °F 42% 29.89 in 10.0 mi ENE 5.8 mph - N/A   Clear
7:55 PM 46.0 °F 44.8 °F 24.1 °F 42% 29.91 in 10.0 mi NNE 3.5 mph - N/A   Clear
8:55 PM 43.0 °F 40.3 °F 26.1 °F 51% 29.93 in 10.0 mi NE 4.6 mph - N/A   Clear
9:55 PM 42.1 °F 37.1 °F 26.1 °F 53% 29.94 in 10.0 mi NE 8.1 mph - N/A   Clear
10:55 PM 37.0 °F - 28.9 °F 73% 29.96 in 10.0 mi Calm Calm - N/A   Clear
11:55 PM 36.0 °F - 28.0 °F 73% 29.95 in 10.0 mi Calm Calm - N/A   Clear